Seward, AK

2:21 PM AKDT on August 29, 2016 (GMT -0800)
Seward

Weather History for PAWD - December, 2013

Change the Weather History Date:

Monday, December 9, 2013

  Actual Average Record
Temperature  
Mean Temperature 32 °F -  
Max Temperature 35 °F 30 °F 47 °F (1986)
Min Temperature 30 °F 21 °F -2 °F (1966)
Degree Days  
Heating Degree Days 32    
Moisture  
Dew Point 29 °F    
Average Humidity 90    
Maximum Humidity 96    
Minimum Humidity 81    
Precipitation  
Precipitation 0.00 in - - ()
Sea Level Pressure  
Sea Level Pressure 30.30 in    
Wind  
Wind Speed 6 mph (NNW)    
Max Wind Speed 9 mph    
Max Gust Speed -    
Visibility 10 miles    
Events      
Averages and records for this station are not official NWS values.
T = Trace of Precipitation, MM = Missing Value Source: NWS Daily Summary

Daily Weather History Graph

Daily Weather History Graph

Search for Another Location

Airport or City:

Trip Planner

Search our weather history database for the weather conditions in past years. The results will help you decide how hot, cold, wet, or windy it might be!

Date:

Astronomy

Dec. 09, 2013 Rise Set
Actual Time 9:48 AM AKST 3:51 PM AKST
Civil Twilight 8:52 AM AKST 4:48 PM AKST
Nautical Twilight 7:55 AM AKST 5:44 PM AKST
Astronomical Twilight 7:04 AM AKST 6:36 PM AKST
Moon 1:06 PM AKST (12/9) 12:23 AM AKST (12/9)
Length of Visible Light 7h 56m
Length of Day
6h 02m
First Quarter, 52% of the Moon is Illuminated
Dec 9
First Quarter
Dec 17
Full
Dec 25
Last Quarter
Jan 1
New
Jan 7
First Quarter

Hourly Weather History & Observations

Time (AKST) Temp. Windchill Dew Point Humidity Pressure Visibility Wind Dir Wind Speed Gust Speed Precip Events Conditions
12:53 AM 32.0 °F 24.8 °F 30.0 °F 92% 30.38 in 10.0 mi North 8.1 mph - 0.00 in   Overcast
1:26 AM 33.8 °F 26.4 °F 30.2 °F 87% 30.38 in 10.0 mi North 9.2 mph - N/A   Overcast
1:53 AM 34.0 °F 27.2 °F 30.0 °F 85% 30.38 in 10.0 mi North 8.1 mph - N/A   Overcast
2:07 AM 33.8 °F 27.0 °F 30.2 °F 87% 30.38 in 10.0 mi North 8.1 mph - N/A   Overcast
2:36 AM 33.8 °F 27.0 °F 30.2 °F 87% 30.38 in 10.0 mi North 8.1 mph - N/A   Overcast
3:43 AM 33.8 °F 27.7 °F 30.2 °F 87% 30.37 in 10.0 mi North 6.9 mph - N/A   Overcast
3:53 AM 33.1 °F 27.7 °F 30.0 °F 89% 30.36 in 10.0 mi North 5.8 mph - N/A   Overcast
4:31 AM 33.8 °F 27.0 °F 28.4 °F 81% 30.36 in 10.0 mi North 8.1 mph - N/A   Overcast
4:53 AM 32.0 °F 28.7 °F 28.0 °F 85% 30.36 in 10.0 mi NNW 3.5 mph - N/A   Overcast
5:53 AM 30.9 °F 24.3 °F 28.0 °F 89% 30.34 in 10.0 mi North 6.9 mph - N/A   Partly Cloudy
6:53 AM 30.0 °F 25.2 °F 28.0 °F 92% 30.34 in 10.0 mi NNW 4.6 mph - N/A   Overcast
7:53 AM 30.9 °F 26.2 °F 28.0 °F 89% 30.33 in 10.0 mi NNW 4.6 mph - N/A   Overcast
8:53 AM 30.9 °F 24.3 °F 28.9 °F 92% 30.32 in 10.0 mi NNW 6.9 mph - N/A   Overcast
9:53 AM 30.0 °F 24.1 °F 28.0 °F 92% 30.32 in 10.0 mi NNW 5.8 mph - N/A   Mostly Cloudy
10:53 AM 30.9 °F 26.2 °F 28.9 °F 92% 30.32 in 10.0 mi NNW 4.6 mph - N/A   Overcast
11:53 AM 33.1 °F 28.7 °F 30.0 °F 89% 30.32 in 10.0 mi NNW 4.6 mph - N/A   Overcast
12:53 PM 35.1 °F 31.0 °F 30.0 °F 82% 30.31 in 10.0 mi NNW 4.6 mph - N/A   Overcast
1:53 PM 35.1 °F - 30.0 °F 82% 30.31 in 10.0 mi Calm Calm - N/A   Overcast
2:53 PM 32.0 °F 28.7 °F 30.0 °F 92% 30.29 in 10.0 mi NNW 3.5 mph - N/A   Scattered Clouds
3:53 PM 30.9 °F - 30.0 °F 96% 30.27 in 10.0 mi Calm Calm - N/A   Overcast
4:53 PM 30.9 °F - 28.9 °F 92% 30.25 in 10.0 mi Calm Calm - N/A   Overcast
5:53 PM 30.9 °F - 30.0 °F 96% 30.25 in 10.0 mi Calm Calm - N/A   Overcast
6:53 PM 30.0 °F 25.2 °F 28.9 °F 96% 30.24 in 10.0 mi NNW 4.6 mph - N/A   Overcast
7:53 PM 32.0 °F - 30.0 °F 92% 30.24 in 10.0 mi Calm Calm - N/A   Overcast
8:34 PM 30.2 °F - 28.4 °F 93% 30.23 in 10.0 mi Calm Calm - N/A   Overcast
8:53 PM 30.0 °F - 28.9 °F 96% 30.23 in 10.0 mi Calm Calm - N/A   Overcast
9:40 PM 30.2 °F 26.7 °F 28.4 °F 93% 30.23 in 9.0 mi North 3.5 mph - N/A   Overcast
9:48 PM 30.2 °F 25.4 °F 28.4 °F 93% 30.23 in 9.0 mi NNW 4.6 mph - N/A   Overcast
9:53 PM 30.0 °F 26.5 °F 28.9 °F 96% 30.23 in 9.0 mi NNW 3.5 mph - N/A   Overcast
10:53 PM 30.9 °F 27.5 °F 30.0 °F 96% 30.22 in 10.0 mi NNW 3.5 mph - N/A   Overcast
11:53 PM 32.0 °F 27.5 °F 30.0 °F 92% 30.21 in 10.0 mi NNW 4.6 mph - N/A   Overcast